,,,PA_Meas_PMT16A,,PR_Meas_QMR101_102,,RH_Meas_QMH101,,SR_Meas_QMS101,,TA_Meas_QMH101,,GenWind,,GenWind,
date,time,status,PA,status,PR,status,RH,status,SR,status,TA,status,DirAvg,status,SpdAvg,
2012-03-14, 00:00:04,VALID,1000.63,VALID,0,VALID,92.0743,VALID,0,VALID,23.9159,VALID,91,VALID,0.504297,
2012-03-14, 00:01:04,VALID,1000.6,VALID,0,VALID,92.1811,VALID,0,VALID,23.9159,VALID,91,VALID,0.544531,
2012-03-14, 00:02:04,VALID,1000.57,VALID,0,VALID,92.2879,VALID,0,VALID,23.9549,VALID,91,VALID,0.265234,
2012-03-14, 00:03:04,VALID,1000.57,VALID,0,VALID,92.3031,VALID,0,VALID,23.9549,VALID,91,VALID,0.0859375,
2012-03-14, 00:04:04,VALID,1000.53,VALID,0,VALID,92.2726,VALID,0,VALID,23.9549,VALID,91,VALID,0.0902344,
2012-03-14, 00:05:04,VALID,1000.52,VALID,0,VALID,92.1887,VALID,0,VALID,23.9354,VALID,91,VALID,0.15625,
2012-03-14, 00:06:04,VALID,1000.53,VALID,0,VALID,92.12,VALID,0,VALID,23.9354,VALID,91,VALID,0.0304688,
2012-03-14, 00:07:04,VALID,1000.53,VALID,0,VALID,92.0971,VALID,0,VALID,23.9159,VALID,91,VALID,0,
2012-03-14, 00:08:04,VALID,1000.51,VALID,0,VALID,92.1658,VALID,0,VALID,23.9159,VALID,84,VALID,0.441016,
2012-03-14, 00:09:04,VALID,1000.53,VALID,0,VALID,92.1582,VALID,0,VALID,23.8768,VALID,354,VALID,0.721094,
2012-03-14, 00:10:04,VALID,1000.52,VALID,0,VALID,92.3413,VALID,0,VALID,23.8573,VALID,354,VALID,0.404297,
2012-03-14, 00:11:04,VALID,1000.54,VALID,0,VALID,92.4481,VALID,0,VALID,23.836,VALID,354,VALID,0.178516,
2012-03-14, 00:12:04,VALID,1000.52,VALID,0,VALID,92.4939,VALID,0,VALID,23.8378,VALID,354,VALID,0,
2012-03-14, 00:13:04,VALID,1000.54,VALID,0,VALID,92.4405,VALID,0,VALID,23.8573,VALID,354,VALID,0.355469,
2012-03-14, 00:14:04,VALID,1000.53,VALID,0,VALID,92.5854,VALID,0,VALID,23.8573,VALID,354,VALID,0.0488281,
2012-03-14, 00:15:04,VALID,1000.49,VALID,0,VALID,92.5931,VALID,0,VALID,23.836,VALID,354,VALID,0,
2012-03-14, 00:16:04,VALID,1000.5,VALID,0,VALID,92.4939,VALID,0,VALID,23.8378,VALID,354,VALID,0,
2012-03-14, 00:17:04,VALID,1000.5,VALID,0,VALID,92.5397,VALID,0,VALID,23.8183,VALID,354,VALID,0,
2012-03-14, 00:18:04,VALID,1000.49,VALID,0,VALID,92.5015,VALID,0,VALID,23.8165,VALID,354,VALID,0.307813,
2012-03-14, 00:19:04,VALID,1000.47,VALID,0,VALID,92.6083,VALID,0,VALID,23.797,VALID,354,VALID,0.612891,
2012-03-14, 00:20:04,VALID,1000.45,VALID,0,VALID,92.6999,VALID,0,VALID,23.8183,VALID,101,VALID,0.700391,
2012-03-14, 00:21:04,VALID,1000.46,VALID,0,VALID,92.7533,VALID,0,VALID,23.8165,VALID,101,VALID,0.428906,
2012-03-14, 00:22:04,VALID,1000.45,VALID,0,VALID,92.7228,VALID,0,VALID,23.8378,VALID,101,VALID,0.250391,
2012-03-14, 00:23:04,VALID,1000.47,VALID,0,VALID,92.6465,VALID,0,VALID,23.8183,VALID,101,VALID,0.341406,
2012-03-14, 00:24:04,VALID,1000.44,VALID,0,VALID,92.6694,VALID,0,VALID,23.8183,VALID,101,VALID,0.941797,
2012-03-14, 00:25:04,VALID,1000.44,VALID,0,VALID,92.7685,VALID,0,VALID,23.8183,VALID,101,VALID,0.759375,
2012-03-14, 00:26:04,VALID,1000.42,VALID,0,VALID,92.7914,VALID,0,VALID,23.8183,VALID,101,VALID,0.439063,
2012-03-14, 00:27:04,VALID,1000.42,VALID,0,VALID,92.7151,VALID,0,VALID,23.8183,VALID,101,VALID,0.363672,
2012-03-14, 00:28:04,VALID,1000.36,VALID,0,VALID,92.677,VALID,0,VALID,23.7988,VALID,101,VALID,0.698047,
2012-03-14, 00:29:04,VALID,1000.36,VALID,0,VALID,92.6236,VALID,0,VALID,23.7988,VALID,101,VALID,0.751562,
2012-03-14, 00:30:04,VALID,1000.32,VALID,0,VALID,92.5015,VALID,0,VALID,23.7597,VALID,101,VALID,0.474219,
2012-03-14, 00:31:04,VALID,1000.31,VALID,0,VALID,92.3794,VALID,0,VALID,23.7616,VALID,101,VALID,0.0882813,
2012-03-14, 00:32:04,VALID,1000.32,VALID,0,VALID,92.3108,VALID,0,VALID,23.7207,VALID,101,VALID,0.0515625,
2012-03-14, 00:33:04,VALID,1000.33,VALID,0,VALID,92.2803,VALID,0,VALID,23.6622,VALID,101,VALID,0.570313,
2012-03-14, 00:34:04,VALID,1000.34,VALID,0,VALID,92.3794,VALID,0,VALID,23.6622,VALID,101,VALID,0.771484,
2012-03-14, 00:35:04,VALID,1000.33,VALID,0,VALID,92.4939,VALID,0,VALID,23.6622,VALID,101,VALID,0.631641,
2012-03-14, 00:36:04,VALID,1000.28,VALID,0,VALID,92.471,VALID,0,VALID,23.664,VALID,101,VALID,0.299609,
2012-03-14, 00:37:04,VALID,1000.25,VALID,0,VALID,92.4176,VALID,0,VALID,23.6232,VALID,101,VALID,0,
2012-03-14, 00:38:04,VALID,1000.24,VALID,0,VALID,92.4557,VALID,0,VALID,23.6232,VALID,101,VALID,0,
2012-03-14, 00:39:04,VALID,1000.25,VALID,0,VALID,92.5091,VALID,0,VALID,23.6036,VALID,101,VALID,0,
2012-03-14, 00:40:04,VALID,1000.24,VALID,0,VALID,92.5931,VALID,0,VALID,23.5841,VALID,101,VALID,0,
2012-03-14, 00:41:04,VALID,1000.22,VALID,0,VALID,92.6388,VALID,0,VALID,23.5841,VALID,101,VALID,0,
2012-03-14, 00:42:04,VALID,1000.19,VALID,0,VALID,92.6388,VALID,0,VALID,23.5841,VALID,101,VALID,0,
2012-03-14, 00:43:04,VALID,1000.18,VALID,0,VALID,92.6617,VALID,0,VALID,23.5646,VALID,101,VALID,0,
2012-03-14, 00:44:04,VALID,1000.18,VALID,0,VALID,92.7609,VALID,0,VALID,23.5646,VALID,52,VALID,0.579297,
2012-03-14, 00:45:04,VALID,1000.15,VALID,0,VALID,92.8143,VALID,0,VALID,23.5646,VALID,52,VALID,0.391406,
2012-03-14, 00:46:04,VALID,1000.14,VALID,0,VALID,92.9059,VALID,0,VALID,23.5646,VALID,52,VALID,0.223828,
2012-03-14, 00:47:04,VALID,1000.1,VALID,0,VALID,92.8601,VALID,0,VALID,23.5859,VALID,52,VALID,0,
2012-03-14, 00:48:04,VALID,1000.1,VALID,0,VALID,92.8448,VALID,0,VALID,23.5664,VALID,52,VALID,0,
2012-03-14, 00:49:04,VALID,1000.08,VALID,0,VALID,92.8448,VALID,0,VALID,23.5451,VALID,52,VALID,0,
2012-03-14, 00:50:04,VALID,1000.04,VALID,0,VALID,92.8677,VALID,0,VALID,23.5451,VALID,52,VALID,0,
2012-03-14, 00:51:04,VALID,1000.07,VALID,0,VALID,92.8525,VALID,0,VALID,23.5469,VALID,52,VALID,0,
2012-03-14, 00:52:04,VALID,1000.02,VALID,0,VALID,92.7914,VALID,0,VALID,23.5061,VALID,52,VALID,0,
2012-03-14, 00:53:04,VALID,1000.01,VALID,0,VALID,92.8372,VALID,0,VALID,23.5274,VALID,52,VALID,0,
2012-03-14, 00:54:04,VALID,999.978,VALID,0,VALID,92.9822,VALID,0,VALID,23.5061,VALID,52,VALID,0,
2012-03-14, 00:55:04,VALID,1000.01,VALID,0,VALID,93.0661,VALID,0,VALID,23.5274,VALID,52,VALID,0,
2012-03-14, 00:56:04,VALID,999.964,VALID,0,VALID,93.1195,VALID,0,VALID,23.5274,VALID,52,VALID,0,
2012-03-14, 00:57:04,VALID,999.986,VALID,0,VALID,93.1119,VALID,0,VALID,23.5061,VALID,52,VALID,0,
2012-03-14, 00:58:04,VALID,999.971,VALID,0,VALID,93.0432,VALID,0,VALID,23.4866,VALID,52,VALID,0,
2012-03-14, 00:59:04,VALID,999.981,VALID,0,VALID,93.0203,VALID,0,VALID,23.4866,VALID,52,VALID,0,
2012-03-14, 01:00:04,VALID,999.944,VALID,0,VALID,93.0051,VALID,0,VALID,23.4884,VALID,52,VALID,0,
2012-03-14, 01:01:04,VALID,999.961,VALID,0,VALID,93.028,VALID,0,VALID,23.4475,VALID,52,VALID,0,
2012-03-14, 01:02:04,VALID,999.983,VALID,0,VALID,93.1348,VALID,0,VALID,23.4475,VALID,52,VALID,0.502734,
2012-03-14, 01:03:04,VALID,999.981,VALID,0,VALID,93.3026,VALID,0,VALID,23.4671,VALID,52,VALID,0.441797,
2012-03-14, 01:04:04,VALID,999.959,VALID,0,VALID,93.44,VALID,0,VALID,23.4866,VALID,52,VALID,0.426562,
2012-03-14, 01:05:04,VALID,999.96,VALID,0,VALID,93.4934,VALID,0,VALID,23.5061,VALID,52,VALID,0.601953,
2012-03-14, 01:06:04,VALID,999.99,VALID,0,VALID,93.4094,VALID,0,VALID,23.5061,VALID,52,VALID,0.536328,
2012-03-14, 01:07:04,VALID,999.95,VALID,0,VALID,93.356,VALID,0,VALID,23.4866,VALID,52,VALID,0.403906,
2012-03-14, 01:08:04,VALID,999.932,VALID,0,VALID,93.2492,VALID,0,VALID,23.4866,VALID,52,VALID,0.0773437,
2012-03-14, 01:09:04,VALID,999.904,VALID,0,VALID,93.0127,VALID,0,VALID,23.4671,VALID,52,VALID,0,
2012-03-14, 01:10:04,VALID,999.925,VALID,0,VALID,92.9364,VALID,0,VALID,23.4475,VALID,52,VALID,0,
2012-03-14, 01:11:04,VALID,999.952,VALID,0,VALID,92.9593,VALID,0,VALID,23.428,VALID,52,VALID,0.00117188,
2012-03-14, 01:12:04,VALID,999.95,VALID,0,VALID,93.028,VALID,0,VALID,23.428,VALID,52,VALID,0.321484,
2012-03-14, 01:13:04,VALID,999.972,VALID,0,VALID,93.1729,VALID,0,VALID,23.428,VALID,52,VALID,0.55625,
2012-03-14, 01:14:04,VALID,999.958,VALID,0,VALID,93.2721,VALID,0,VALID,23.4475,VALID,117,VALID,0.953906,
2012-03-14, 01:15:04,VALID,999.934,VALID,0,VALID,93.3408,VALID,0,VALID,23.4671,VALID,132,VALID,1.01953,
2012-03-14, 01:16:04,VALID,999.93,VALID,0,VALID,93.3713,VALID,0,VALID,23.4671,VALID,139,VALID,0.85625,
2012-03-14, 01:17:04,VALID,999.947,VALID,0,VALID,93.3866,VALID,0,VALID,23.5061,VALID,139,VALID,0.703125,
2012-03-14, 01:18:04,VALID,999.915,VALID,0,VALID,93.3255,VALID,0,VALID,23.4866,VALID,139,VALID,0.403516,
2012-03-14, 01:19:04,VALID,999.879,VALID,0,VALID,93.1653,VALID,0,VALID,23.4866,VALID,139,VALID,0.873438,
2012-03-14, 01:20:04,VALID,999.878,VALID,0,VALID,93.1805,VALID,0,VALID,23.4653,VALID,148,VALID,0.904688,
2012-03-14, 01:21:04,VALID,999.826,VALID,0,VALID,93.2645,VALID,0,VALID,23.5061,VALID,153,VALID,0.902344,
2012-03-14, 01:22:04,VALID,999.857,VALID,0,VALID,93.3942,VALID,0,VALID,23.5451,VALID,157,VALID,0.632031,
2012-03-14, 01:23:04,VALID,999.863,VALID,0,VALID,93.4323,VALID,0,VALID,23.5451,VALID,157,VALID,0.283203,
2012-03-14, 01:24:04,VALID,999.863,VALID,0,VALID,93.3942,VALID,0.104696,VALID,23.5433,VALID,157,VALID,0.358203,
2012-03-14, 01:25:04,VALID,999.834,VALID,0,VALID,93.3713,VALID,0,VALID,23.5433,VALID,157,VALID,0.340234,
2012-03-14, 01:26:04,VALID,999.8,VALID,0,VALID,93.3866,VALID,0.104696,VALID,23.5628,VALID,157,VALID,0.191797,
2012-03-14, 01:27:04,VALID,999.809,VALID,0,VALID,93.2492,VALID,0,VALID,23.5451,VALID,157,VALID,0,
2012-03-14, 01:28:04,VALID,999.802,VALID,0,VALID,93.1882,VALID,0,VALID,23.5451,VALID,157,VALID,0,
2012-03-14, 01:29:04,VALID,999.817,VALID,0,VALID,93.1729,VALID,0,VALID,23.5043,VALID,157,VALID,0,
2012-03-14, 01:30:04,VALID,999.793,VALID,0,VALID,93.1424,VALID,0,VALID,23.5043,VALID,157,VALID,0,
2012-03-14, 01:31:04,VALID,999.764,VALID,0,VALID,93.1577,VALID,0,VALID,23.5061,VALID,157,VALID,0,
2012-03-14, 01:32:04,VALID,999.74,VALID,0,VALID,93.1958,VALID,0,VALID,23.4866,VALID,157,VALID,0.009375,
2012-03-14, 01:33:04,VALID,999.734,VALID,0,VALID,93.0356,VALID,0,VALID,23.4263,VALID,157,VALID,0.26875,
2012-03-14, 01:34:04,VALID,999.717,VALID,0,VALID,92.8296,VALID,0,VALID,23.389,VALID,157,VALID,0.315625,
2012-03-14, 01:35:04,VALID,999.709,VALID,0,VALID,92.9059,VALID,0,VALID,23.3482,VALID,157,VALID,0,
2012-03-14, 01:36:04,VALID,999.72,VALID,0,VALID,93.0051,VALID,0,VALID,23.3092,VALID,157,VALID,0,
2012-03-14, 01:37:04,VALID,999.724,VALID,0,VALID,92.9745,VALID,0.104696,VALID,23.2897,VALID,157,VALID,0,
2012-03-14, 01:38:04,VALID,999.718,VALID,0,VALID,92.9669,VALID,0.104696,VALID,23.2507,VALID,157,VALID,0,
2012-03-14, 01:39:04,VALID,999.683,VALID,0,VALID,92.9745,VALID,0,VALID,23.2329,VALID,157,VALID,0,
2012-03-14, 01:40:04,VALID,999.658,VALID,0,VALID,93.0051,VALID,0,VALID,23.1921,VALID,157,VALID,0,
2012-03-14, 01:41:04,VALID,999.681,VALID,0,VALID,93.1653,VALID,0.104696,VALID,23.2134,VALID,157,VALID,0,
2012-03-14, 01:42:04,VALID,999.686,VALID,0,VALID,93.3484,VALID,0,VALID,23.2329,VALID,157,VALID,0,
2012-03-14, 01:43:04,VALID,999.725,VALID,0,VALID,93.4781,VALID,0,VALID,23.2329,VALID,157,VALID,0,
2012-03-14, 01:44:04,VALID,999.679,VALID,0,VALID,93.5849,VALID,0,VALID,23.2524,VALID,157,VALID,0,
2012-03-14, 01:45:04,VALID,999.69,VALID,0,VALID,93.646,VALID,0,VALID,23.2524,VALID,157,VALID,0,
2012-03-14, 01:46:04,VALID,999.652,VALID,0,VALID,93.646,VALID,0,VALID,23.2719,VALID,157,VALID,0,
2012-03-14, 01:47:04,VALID,999.661,VALID,0,VALID,93.6383,VALID,0,VALID,23.2312,VALID,157,VALID,0,
2012-03-14, 01:48:04,VALID,999.651,VALID,0,VALID,93.6154,VALID,0,VALID,23.2329,VALID,157,VALID,0,
2012-03-14, 01:49:04,VALID,999.64,VALID,0,VALID,93.6231,VALID,0,VALID,23.2329,VALID,157,VALID,0,
2012-03-14, 01:50:04,VALID,999.638,VALID,0,VALID,93.6841,VALID,0,VALID,23.2524,VALID,157,VALID,0,
2012-03-14, 01:51:04,VALID,999.631,VALID,0,VALID,93.7833,VALID,0,VALID,23.2507,VALID,157,VALID,0,
2012-03-14, 01:52:04,VALID,999.655,VALID,0,VALID,93.8977,VALID,0,VALID,23.2897,VALID,157,VALID,0.09375,
2012-03-14, 01:53:04,VALID,999.646,VALID,0,VALID,93.9435,VALID,0.104696,VALID,23.3287,VALID,157,VALID,0.551562,
2012-03-14, 01:54:04,VALID,999.629,VALID,0,VALID,93.852,VALID,0,VALID,23.311,VALID,157,VALID,0.469922,
2012-03-14, 01:55:04,VALID,999.631,VALID,0,VALID,93.6994,VALID,0,VALID,23.2915,VALID,157,VALID,0.338281,
2012-03-14, 01:56:04,VALID,999.628,VALID,0,VALID,93.6231,VALID,0,VALID,23.2524,VALID,157,VALID,0.199609,
2012-03-14, 01:57:04,VALID,999.568,VALID,0,VALID,93.5926,VALID,0,VALID,23.2312,VALID,157,VALID,0.238672,
2012-03-14, 01:58:04,VALID,999.576,VALID,0,VALID,93.5773,VALID,0,VALID,23.2117,VALID,157,VALID,0.125781,
2012-03-14, 01:59:04,VALID,999.584,VALID,0,VALID,93.6002,VALID,0,VALID,23.2134,VALID,157,VALID,0,
2012-03-14, 02:00:04,VALID,999.563,VALID,0,VALID,93.6231,VALID,0,VALID,23.1921,VALID,157,VALID,0,
2012-03-14, 02:01:04,VALID,999.554,VALID,0,VALID,93.6765,VALID,0,VALID,23.1726,VALID,157,VALID,0.00429688,
2012-03-14, 02:02:04,VALID,999.593,VALID,0,VALID,93.7375,VALID,0,VALID,23.1921,VALID,157,VALID,0.212109,
2012-03-14, 02:03:04,VALID,999.561,VALID,0,VALID,93.8138,VALID,0,VALID,23.1921,VALID,157,VALID,0.0433594,
2012-03-14, 02:04:04,VALID,999.568,VALID,0,VALID,93.8367,VALID,0,VALID,23.1726,VALID,157,VALID,0,
2012-03-14, 02:05:04,VALID,999.532,VALID,0,VALID,93.7375,VALID,0,VALID,23.1531,VALID,157,VALID,0,
2012-03-14, 02:06:04,VALID,999.54,VALID,0,VALID,93.6612,VALID,0,VALID,23.1336,VALID,157,VALID,0,
2012-03-14, 02:07:04,VALID,999.578,VALID,0,VALID,93.6765,VALID,0,VALID,23.1354,VALID,157,VALID,0,
2012-03-14, 02:08:04,VALID,999.559,VALID,0,VALID,93.7223,VALID,0,VALID,23.1354,VALID,157,VALID,0,
2012-03-14, 02:09:04,VALID,999.553,VALID,0,VALID,93.7604,VALID,0,VALID,23.1141,VALID,157,VALID,0,
2012-03-14, 02:10:04,VALID,999.497,VALID,0,VALID,93.7985,VALID,0,VALID,23.1141,VALID,157,VALID,0,
2012-03-14, 02:11:04,VALID,999.508,VALID,0,VALID,93.7833,VALID,0,VALID,23.1141,VALID,157,VALID,0,
2012-03-14, 02:12:04,VALID,999.509,VALID,0,VALID,93.768,VALID,0,VALID,23.0946,VALID,157,VALID,0,
2012-03-14, 02:13:04,VALID,999.461,VALID,0,VALID,93.8672,VALID,0.104696,VALID,23.1141,VALID,157,VALID,0,
2012-03-14, 02:14:04,VALID,999.467,VALID,0,VALID,93.9206,VALID,0.104696,VALID,23.1141,VALID,157,VALID,0.446484,
2012-03-14, 02:15:04,VALID,999.493,VALID,0,VALID,94.0198,VALID,0,VALID,23.1336,VALID,157,VALID,0.588672,
2012-03-14, 02:16:04,VALID,999.464,VALID,0,VALID,94.1266,VALID,0,VALID,23.1939,VALID,118,VALID,0.622656,
2012-03-14, 02:17:04,VALID,999.444,VALID,0,VALID,94.1571,VALID,0,VALID,23.1726,VALID,118,VALID,0.482422,
2012-03-14, 02:18:04,VALID,999.426,VALID,0,VALID,94.1571,VALID,0,VALID,23.1921,VALID,118,VALID,0.347656,
2012-03-14, 02:19:04,VALID,999.422,VALID,0,VALID,94.1037,VALID,0,VALID,23.2134,VALID,118,VALID,0.332031,
2012-03-14, 02:20:04,VALID,999.394,VALID,0,VALID,94.0122,VALID,0,VALID,23.1744,VALID,118,VALID,0.321094,
2012-03-14, 02:21:04,VALID,999.396,VALID,0,VALID,93.974,VALID,0,VALID,23.1744,VALID,118,VALID,0.347266,
2012-03-14, 02:22:04,VALID,999.401,VALID,0,VALID,93.974,VALID,0.104696,VALID,23.1531,VALID,118,VALID,0.421484,
2012-03-14, 02:23:04,VALID,999.417,VALID,0,VALID,94.0045,VALID,0,VALID,23.1531,VALID,118,VALID,0.380078,
2012-03-14, 02:24:04,VALID,999.394,VALID,0,VALID,93.9893,VALID,0,VALID,23.1336,VALID,118,VALID,0.472266,
2012-03-14, 02:25:04,VALID,999.397,VALID,0,VALID,93.9664,VALID,0,VALID,23.1336,VALID,118,VALID,0.694531,
2012-03-14, 02:26:04,VALID,999.412,VALID,0,VALID,93.9283,VALID,0,VALID,23.1159,VALID,118,VALID,0.670313,
2012-03-14, 02:27:04,VALID,999.409,VALID,0,VALID,93.9664,VALID,0,VALID,23.1159,VALID,118,VALID,0.391406,
2012-03-14, 02:28:04,VALID,999.419,VALID,0,VALID,93.9969,VALID,0,VALID,23.1159,VALID,118,VALID,0.340625,
2012-03-14, 02:29:04,VALID,999.396,VALID,0,VALID,93.9969,VALID,0,VALID,23.1159,VALID,118,VALID,0.307031,
2012-03-14, 02:30:04,VALID,999.407,VALID,0,VALID,93.9664,VALID,0.104696,VALID,23.0751,VALID,118,VALID,0.171094,
2012-03-14, 02:31:04,VALID,999.384,VALID,0,VALID,93.9359,VALID,0,VALID,23.0751,VALID,118,VALID,0.00351562,
2012-03-14, 02:32:04,VALID,999.395,VALID,0,VALID,93.8901,VALID,0,VALID,23.0573,VALID,118,VALID,0.321094,
2012-03-14, 02:33:04,VALID,999.378,VALID,0,VALID,93.8748,VALID,0.104696,VALID,23.0378,VALID,118,VALID,0.492578,
2012-03-14, 02:34:04,VALID,999.368,VALID,0,VALID,93.9206,VALID,0,VALID,23.0378,VALID,118,VALID,0.547266,
2012-03-14, 02:35:04,VALID,999.361,VALID,0,VALID,94.0427,VALID,0,VALID,23.0573,VALID,118,VALID,0.484375,
2012-03-14, 02:36:04,VALID,999.335,VALID,0,VALID,94.119,VALID,0.104696,VALID,23.0769,VALID,118,VALID,0.375,
2012-03-14, 02:37:04,VALID,999.292,VALID,0,VALID,94.1495,VALID,0,VALID,23.0769,VALID,118,VALID,0.375,
2012-03-14, 02:38:04,VALID,999.306,VALID,0,VALID,94.1648,VALID,0,VALID,23.0964,VALID,118,VALID,0.524219,
2012-03-14, 02:39:04,VALID,999.322,VALID,0,VALID,94.2105,VALID,0,VALID,23.0946,VALID,118,VALID,0.535547,
2012-03-14, 02:40:04,VALID,999.299,VALID,0,VALID,94.264,VALID,0,VALID,23.1159,VALID,118,VALID,0.494141,
2012-03-14, 02:41:04,VALID,999.312,VALID,0,VALID,94.2792,VALID,0,VALID,23.1141,VALID,118,VALID,0.478906,
2012-03-14, 02:42:04,VALID,999.29,VALID,0,VALID,94.264,VALID,0,VALID,23.1336,VALID,118,VALID,0.405078,
2012-03-14, 02:43:04,VALID,999.278,VALID,0,VALID,94.2716,VALID,0,VALID,23.1336,VALID,118,VALID,0.282422,
2012-03-14, 02:44:04,VALID,999.24,VALID,0,VALID,94.2334,VALID,0,VALID,23.1549,VALID,118,VALID,0.423828,
2012-03-14, 02:45:04,VALID,999.247,VALID,0,VALID,94.2258,VALID,0,VALID,23.1549,VALID,118,VALID,0.446094,
2012-03-14, 02:46:04,VALID,999.237,VALID,0,VALID,94.2411,VALID,0,VALID,23.1744,VALID,118,VALID,0.464844,
2012-03-14, 02:47:04,VALID,999.243,VALID,0,VALID,94.2487,VALID,0,VALID,23.1549,VALID,118,VALID,0.407422,
2012-03-14, 02:48:04,VALID,999.245,VALID,0,VALID,94.2563,VALID,0,VALID,23.1744,VALID,118,VALID,0.393359,
2012-03-14, 02:49:04,VALID,999.226,VALID,0,VALID,94.2487,VALID,0,VALID,23.1744,VALID,118,VALID,0.437891,
2012-03-14, 02:50:04,VALID,999.233,VALID,0,VALID,94.2563,VALID,0.104696,VALID,23.1744,VALID,118,VALID,0.391406,
2012-03-14, 02:51:04,VALID,999.209,VALID,0,VALID,94.2487,VALID,0,VALID,23.1939,VALID,118,VALID,0.270312,
2012-03-14, 02:52:04,VALID,999.18,VALID,0,VALID,94.2563,VALID,0,VALID,23.1939,VALID,118,VALID,0.0234375,
2012-03-14, 02:53:04,VALID,999.2,VALID,0,VALID,94.2411,VALID,0,VALID,23.1939,VALID,118,VALID,0,
2012-03-14, 02:54:04,VALID,999.176,VALID,0,VALID,94.2411,VALID,0,VALID,23.1939,VALID,118,VALID,0.00117188,
2012-03-14, 02:55:04,VALID,999.214,VALID,0,VALID,94.18,VALID,0,VALID,23.1744,VALID,118,VALID,0.617969,
2012-03-14, 02:56:04,VALID,999.194,VALID,0,VALID,94.2105,VALID,0,VALID,23.1744,VALID,118,VALID,0.546875,
2012-03-14, 02:57:04,VALID,999.158,VALID,0,VALID,94.2258,VALID,0,VALID,23.1939,VALID,118,VALID,0.503516,
2012-03-14, 02:58:04,VALID,999.135,VALID,0,VALID,94.2334,VALID,0,VALID,23.1939,VALID,118,VALID,0.325781,
2012-03-14, 02:59:04,VALID,999.126,VALID,0,VALID,94.1724,VALID,0,VALID,23.1939,VALID,118,VALID,0.191797,
2012-03-14, 03:00:04,VALID,999.122,VALID,0,VALID,94.1495,VALID,0,VALID,23.1939,VALID,118,VALID,0.0421875,
2012-03-14, 03:01:04,VALID,999.13,VALID,0,VALID,94.1114,VALID,0,VALID,23.1744,VALID,118,VALID,0,
2012-03-14, 03:02:04,VALID,999.108,VALID,0,VALID,94.058,VALID,0,VALID,23.1549,VALID,118,VALID,0,
2012-03-14, 03:03:04,VALID,999.102,VALID,0,VALID,94.0274,VALID,0.104696,VALID,23.1549,VALID,118,VALID,0.473437,
2012-03-14, 03:04:04,VALID,999.123,VALID,0,VALID,94.0045,VALID,0,VALID,23.1549,VALID,121,VALID,0.879687,
2012-03-14, 03:05:04,VALID,999.114,VALID,0,VALID,94.0045,VALID,0,VALID,23.1354,VALID,132,VALID,0.95625,
2012-03-14, 03:06:04,VALID,999.109,VALID,0,VALID,94.0732,VALID,0,VALID,23.1549,VALID,145,VALID,1.00312,
2012-03-14, 03:07:04,VALID,999.121,VALID,0,VALID,94.1266,VALID,0,VALID,23.1744,VALID,151,VALID,0.639844,
2012-03-14, 03:08:04,VALID,999.093,VALID,0,VALID,94.1571,VALID,0,VALID,23.1726,VALID,151,VALID,0.3375,
2012-03-14, 03:09:04,VALID,999.083,VALID,0,VALID,94.1724,VALID,0,VALID,23.1726,VALID,151,VALID,0.0457031,
2012-03-14, 03:10:04,VALID,999.061,VALID,0,VALID,94.1571,VALID,0,VALID,23.1939,VALID,151,VALID,0,
2012-03-14, 03:11:04,VALID,999.089,VALID,0,VALID,94.18,VALID,0,VALID,23.2329,VALID,151,VALID,0.422266,
2012-03-14, 03:12:04,VALID,999.084,VALID,0,VALID,94.1877,VALID,0,VALID,23.2329,VALID,151,VALID,0.28125,
2012-03-14, 03:13:04,VALID,999.106,VALID,0,VALID,94.1877,VALID,0,VALID,23.2524,VALID,151,VALID,0.275781,
2012-03-14, 03:14:04,VALID,999.13,VALID,0,VALID,94.18,VALID,0,VALID,23.2524,VALID,88,VALID,0.671094,
2012-03-14, 03:15:04,VALID,999.125,VALID,0,VALID,94.1419,VALID,0,VALID,23.2524,VALID,51,VALID,0.98125,
2012-03-14, 03:16:04,VALID,999.124,VALID,0,VALID,94.1343,VALID,0,VALID,23.2329,VALID,51,VALID,0.790234,
2012-03-14, 03:17:04,VALID,999.091,VALID,0,VALID,94.1266,VALID,0,VALID,23.2117,VALID,51,VALID,0.302734,
2012-03-14, 03:18:04,VALID,999.105,VALID,0,VALID,94.1419,VALID,0,VALID,23.2329,VALID,51,VALID,0,
2012-03-14, 03:19:04,VALID,999.085,VALID,0,VALID,94.1266,VALID,0,VALID,23.2134,VALID,51,VALID,0,
2012-03-14, 03:20:04,VALID,999.11,VALID,0,VALID,94.1419,VALID,0,VALID,23.1939,VALID,51,VALID,0,
2012-03-14, 03:21:04,VALID,999.113,VALID,0,VALID,94.1495,VALID,0,VALID,23.1921,VALID,51,VALID,0.141406,
2012-03-14, 03:22:04,VALID,999.112,VALID,0,VALID,94.18,VALID,0,VALID,23.2134,VALID,51,VALID,0.458594,
2012-03-14, 03:23:04,VALID,999.136,VALID,0,VALID,94.2029,VALID,0,VALID,23.2117,VALID,51,VALID,0.604688,
2012-03-14, 03:24:04,VALID,999.105,VALID,0,VALID,94.2029,VALID,0,VALID,23.2117,VALID,51,VALID,0.372656,
2012-03-14, 03:25:04,VALID,999.086,VALID,0,VALID,94.2182,VALID,0,VALID,23.2117,VALID,51,VALID,0.226953,
2012-03-14, 03:26:04,VALID,999.072,VALID,0,VALID,94.2182,VALID,0,VALID,23.2329,VALID,51,VALID,0.355859,
2012-03-14, 03:27:04,VALID,999.073,VALID,0,VALID,94.2716,VALID,0,VALID,23.2312,VALID,51,VALID,0.182422,
2012-03-14, 03:28:04,VALID,999.092,VALID,0,VALID,94.2716,VALID,0,VALID,23.2719,VALID,51,VALID,0.183984,
2012-03-14, 03:29:04,VALID,999.082,VALID,0,VALID,94.3021,VALID,0,VALID,23.2507,VALID,51,VALID,0.272656,
2012-03-14, 03:30:04,VALID,999.082,VALID,0,VALID,94.2945,VALID,0.104696,VALID,23.2507,VALID,51,VALID,0.352734,
2012-03-14, 03:31:04,VALID,999.095,VALID,0,VALID,94.325,VALID,0,VALID,23.2702,VALID,51,VALID,0.295312,
2012-03-14, 03:32:04,VALID,999.079,VALID,0,VALID,94.3097,VALID,0,VALID,23.2897,VALID,51,VALID,0.320703,
2012-03-14, 03:33:04,VALID,999.103,VALID,0,VALID,94.3708,VALID,0,VALID,23.3305,VALID,51,VALID,0.271094,
2012-03-14, 03:34:04,VALID,999.071,VALID,0,VALID,94.3555,VALID,0,VALID,23.3305,VALID,51,VALID,0.317578,
2012-03-14, 03:35:04,VALID,999.13,VALID,0,VALID,94.3631,VALID,0,VALID,23.3287,VALID,51,VALID,0.461719,
2012-03-14, 03:36:04,VALID,999.105,VALID,0,VALID,94.325,VALID,0,VALID,23.35,VALID,51,VALID,0.459766,
2012-03-14, 03:37:04,VALID,999.133,VALID,0,VALID,94.3326,VALID,0,VALID,23.35,VALID,51,VALID,0.480469,
2012-03-14, 03:38:04,VALID,999.14,VALID,0,VALID,94.2868,VALID,0,VALID,23.3092,VALID,51,VALID,0.576953,
2012-03-14, 03:39:04,VALID,999.132,VALID,0,VALID,94.2945,VALID,0,VALID,23.3305,VALID,51,VALID,0.568359,
2012-03-14, 03:40:04,VALID,999.142,VALID,0,VALID,94.2792,VALID,0,VALID,23.3305,VALID,51,VALID,0.516406,
2012-03-14, 03:41:04,VALID,999.114,VALID,0,VALID,94.2868,VALID,0.104696,VALID,23.3092,VALID,51,VALID,0.371094,
2012-03-14, 03:42:04,VALID,999.146,VALID,0,VALID,94.264,VALID,0,VALID,23.3092,VALID,51,VALID,0.440625,
2012-03-14, 03:43:04,VALID,999.161,VALID,0,VALID,94.3021,VALID,0,VALID,23.3092,VALID,51,VALID,0.526953,
2012-03-14, 03:44:04,VALID,999.181,VALID,0,VALID,94.2563,VALID,0,VALID,23.3092,VALID,51,VALID,0.710156,
2012-03-14, 03:45:04,VALID,999.192,VALID,0,VALID,94.2411,VALID,0,VALID,23.3092,VALID,51,VALID,0.932813,
2012-03-14, 03:46:04,VALID,999.197,VALID,0,VALID,94.2258,VALID,0,VALID,23.311,VALID,51,VALID,0.928516,
2012-03-14, 03:47:04,VALID,999.212,VALID,0,VALID,94.2105,VALID,0,VALID,23.2897,VALID,51,VALID,0.837891,
2012-03-14, 03:48:04,VALID,999.187,VALID,0,VALID,94.2029,VALID,0,VALID,23.2897,VALID,51,VALID,0.378906,